Content
SEND FEEDBACK

Daily
Averages
Monthly
Summary
United States of America

TIN CITY, ALASKA


Home > North America > United States > Alaska
Elevation: 219 feet     Latitude: 65 37N     Longitude: 168 03W

WEATHER
 
SELECT A DAY
Number of Records: 217,293;   Date Range: 1/1/95 - 9/16/14
 
SHARE

PRINT THIS DATA

[ ← Previous Day ]
WEATHER ALMANAC - JANUARY 31, 2013
[ Next Day → ]
[ °C ]   °F
Weather ElementAverageHighLow
Temperature-3.9 °F-0.2 °F (1:55 am)-10.7 °F (11:55 pm)
Dewpoint-7.2 °F-2.2 °F (9:05 am)-14.4 °F (11:55 pm)
Humidity85.8 %92 % (9:05 am)77 % (9:11 pm)
Barometer29.87 in30.12 in (11:55 pm)29.68 in (1:55 am)
Wind Speed31.6 mph35.7 mph (12:55 pm)
Weather ElementAverage
Visibility1 mi
Wind DirectionNE (42.4 °)

Weather ElementTotal
Precipitation---
Heating Degree Days70.5 (Base 65)
Averaged from 42 records on January 31, 2013
WEATHER CONDITIONS BREAKOUT
WIND DIRECTION BREAKOUT
WEATHER BY HOUR - JANUARY 31, 2013
[ °C ]   °F
Local TimeTemperatureDewpointHumidityBarometerVisibilityWind DirectionWind SpeedGust SpeedPrecipitationEventsConditions
1:55 AM-0.2 °F-2.7 °F89 %29.68 in0.2 miNNE (30°)34.5 mphSnowSnow
3:55 AM-0.6 °F-3.3 °F88 %29.71 in0.2 miNNE (30°)34.5 mphSnowHeavy Snow
4:35 AM-0.4 °F-4.0 °F85 %29.71 in0.5 miNNE (30°)34.5 mphSnowSnow
4:55 AM-0.8 °F-3.3 °F89 %29.72 in0.5 miNNE (30°)32.2 mphSnowSnow
5:55 AM-0.6 °F-3.1 °F89 %29.71 in0.5 miNNE (30°)33.4 mphSnowSnow
6:55 AM-0.6 °F-3.1 °F89 %29.73 in0.5 miNNE (30°)32.2 mphSnowLight Snow
7:55 AM-0.8 °F-3.3 °F89 %29.75 in0.5 miNNE (30°)29.9 mphSnowLight Snow
8:10 AM-0.4 °F-4.0 °F85 %29.74 in1.0 miNNE (30°)31.1 mphSnowLight Snow
8:30 AM-0.4 °F-4.0 °F85 %29.75 in0.8 miNNE (30°)28.8 mphSnowLight Snow
8:55 AM-0.8 °F-3.1 °F90 %29.76 in0.8 miNNE (30°)27.6 mphSnowLight Snow
9:05 AM-0.4 °F-2.2 °F92 %29.76 in1.0 miNNE (30°)29.9 mphSnowLight Snow
9:25 AM-0.4 °F-4.0 °F85 %29.76 in0.8 miNNE (30°)28.8 mphSnowLight Snow
9:55 AM-0.9 °F-3.5 °F89 %29.78 in0.5 miNNE (30°)28.8 mphSnowLight Snow
10:15 AM-0.4 °F-2.2 °F92 %29.78 in0.8 miNNE (30°)27.6 mphSnowLight Snow
10:55 AM-0.6 °F-3.3 °F88 %29.79 in1.0 miNNE (20°)32.2 mphSnowLight Snow
11:05 AM-0.4 °F-4.0 °F85 %29.80 in0.8 miNNE (30°)28.8 mphSnowLight Snow
11:25 AM-2.2 °F-4.0 °F92 %29.80 in1.0 miNorth (10°)32.2 mphSnowLight Snow
11:55 AM-2.7 °F-5.8 °F87 %29.81 in1.0 miNorth (10°)32.2 mphSnowLight Snow
12:45 PM-2.2 °F-5.8 °F85 %29.83 in1.2 miNorth (10°)33.4 mphSnowLight Snow
12:55 PM-3.1 °F-6.2 °F87 %29.83 in1.2 miNorth (10°)35.7 mphSnowLight Snow
1:35 PM-4.0 °F-7.6 °F85 %29.86 in0.8 miNorth (10°)34.5 mphSnowLight Snow
1:55 PM-3.6 °F-7.1 °F85 %29.86 in1.0 miNorth (10°)34.5 mphSnowLight Snow
2:15 PM-4.0 °F-7.6 °F85 %29.88 in1.2 miNorth (10°)33.4 mphSnowLight Snow
2:35 PM-4.0 °F-7.6 °F85 %29.88 in0.8 miNorth (360°)33.4 mphSnowLight Snow
2:55 PM-4.2 °F-7.4 °F86 %29.88 in1.0 miNorth (10°)33.4 mphSnowLight Snow
3:10 PM-4.0 °F-7.6 °F85 %29.88 in0.8 miNorth (10°)33.4 mphSnowLight Snow
3:55 PM-4.2 °F-7.6 °F85 %29.91 in0.5 miNorth (10°)34.5 mphSnowLight Snow
4:45 PM-5.8 °F-9.4 °F84 %29.93 in1.0 miNorth (10°)32.2 mphSnowLight Snow
4:55 PM-5.3 °F-8.9 °F84 %29.93 in1.2 miNorth (10°)35.7 mphSnowLight Snow
5:55 PM-6.0 °F-9.6 °F84 %29.97 in1.2 miNorth (10°)29.9 mphSnowLight Snow
6:20 PM-5.8 °F-9.4 °F84 %29.98 in2.0 miNorth (10°)28.8 mphSnowLight Snow
6:55 PM-6.7 °F-10.5 °F84 %30.00 in1.5 miNorth (10°)29.9 mphSnowLight Snow
7:10 PM-7.6 °F-11.2 °F84 %30.00 in2.0 miNorth (10°)28.8 mphSnowLight Snow
7:30 PM-7.6 °F-11.2 °F84 %30.00 in1.5 miNorth (10°)31.1 mphSnowLight Snow
7:55 PM-7.6 °F-11.6 °F83 %30.02 in1.0 miNorth (360°)31.1 mphSnowLight Snow
8:05 PM-7.6 °F-11.2 °F84 %30.03 in1.2 miNorth (10°)29.9 mphSnowLight Snow
8:55 PM-8.3 °F-12.3 °F83 %30.05 in2.0 miNorth (360°)31.1 mphSnowLight Snow
9:11 PM-7.6 °F-13.0 °F77 %30.05 in1.0 miNorth (10°)29.9 mphSnowLight Snow
9:31 PM-9.4 °F-13.0 °F84 %30.06 in1.2 miNorth (10°)31.1 mphSnowLight Snow
9:55 PM-9.2 °F-13.2 °F83 %30.06 in1.5 miNorth (10°)32.2 mphSnowLight Snow
10:55 PM-10.1 °F-14.3 °F82 %30.09 in1.2 miNorth (10°)29.9 mphSnowLight Snow
11:55 PM-10.7 °F-14.4 °F83 %30.12 in1.8 miNorth (10°)32.2 mphSnowLight Snow
Hourly data recorded from PATC, located miles away from Tin City, Alaska







STORIES FROM OUR PARTNERS